Regional Weather Roundup
Issued by NWS Upton, NY

Current Version | Previous Version | Graphics & Text | Print | Product List | Glossary Off
Versions: 1 2 3 4 5 6 7 8 9 10 11 12 13 14 15 16 17 18 19 20 21 22 23 24 25 26 27 28 29 30 31 32 33 34 35 36 37 38 39 40 41 42 43 44 45 46 47 48 49 50

601
ASUS41 KOKX 200805
RWROKX

Regional Weather Roundup
National Weather Service New York NY
400 AM EDT FRI APR 20 2018

Note: "FAIR" indicates few or no clouds below 12,000 feet with no
significant weather and/or obstructions to visibility.

NYZ071-072-176-178-NJZ106-104-200900-
New York City Metro Area

CITY           SKY/WX    TMP DP  RH WIND       PRES   REMARKS
Central Park   MOCLDY    37  24  59 NW7       30.08R WCI  32
Bronx Bot Gard   N/A     36  23  60 W16       30.07R WCI  26
Bronx Lehman C   N/A     36  25  64 NW8         N/A  WCI  29
LaGuardia Arpt FAIR      39  25  57 NW16      30.06R WCI  30
Queens College   N/A     37  25  60 W14         N/A  WCI  29
Kennedy Intl   FAIR      37  24  59 W12G21    30.07R WCI  29
Breezy Point     N/A     37 N/A N/A W13G20      N/A  WCI  29
Brooklyn Coll    N/A     37  25  60 W13         N/A  WCI  29
Staten Island    N/A     36  25  64 W10         N/A  WCI  28
Newark/Liberty MOCLDY    37  24  59 W14       30.07R WCI  28
Teterboro      FAIR      37  24  59 W12G23    30.06R WCI  29
$$

NYZ177-179-078>081-200900-
Long Island New York

CITY           SKY/WX    TMP DP  RH WIND       PRES   REMARKS
Jones Beach      N/A     37 N/A N/A NW18G25     N/A  WCI  27
Wantagh          N/A     37  25  60 W14         N/A  WCI  29
Hempstead        N/A     37  27  65 W16       30.07R WCI  28
Matinecock Pt    N/A     37 N/A N/A W23G29      N/A  WCI  26
Farmingdale    FAIR      36  24  62 NW9       30.04R WCI  29
MacArthur/ISP  FAIR      36  25  64 W12       30.01R WCI  28
Stony Brook      N/A     37  25  60 NW10G22     N/A  WCI  30
Shirley        FAIR      36  26  67 W10       30.01R WCI  28
Mt Sinai Harb    N/A    N/A N/A N/A NW13G22     N/A
Westhampton    FAIR      34  25  69 NW9       30.00R WCI  27
East Hampton   FAIR      36  23  59 NW9G21    29.97R WCI  29
Southold         N/A     37  25  60 NW16        N/A  WCI  28
Montauk          N/A     39  26  59 NW13G24   29.96R WCI  31
$$

NYZ052-065-067-200900-
Hudson Valley

CITY           SKY/WX    TMP DP  RH WIND       PRES   REMARKS
White Plains   FAIR      34  21  59 W12G20    30.01R WCI  25
Larchmont Harb   N/A     36 N/A N/A W13         N/A  WCI  27
Croton On Huds   N/A     36 N/A N/A W15         N/A  WCI  26
Somers           N/A     32  23  69 NW8         N/A  WCI  25
Brewster         N/A     32  19  59 NW8         N/A  WCI  25
Newburgh       CLEAR     34  25  69 W9        30.01S WCI  26
Montgomery     FAIR      34  21  59 NW8       30.02R WCI  27
Otisville        N/A     32  23  69 NW7         N/A  WCI  26
Warwick          N/A     34  27  75 W12         N/A  WCI  25
Suffern          N/A     32  23  69 NW10        N/A  WCI  24
Poughkeepsie   FAIR      35  18  49 W13G22    30.02R WCI  26
Albany         CLOUDY    34  23  64 NW12      30.01R WCI  25
$$

NJZ001-105-106-008-010-013-015-019>022-104-200900-
New Jersey

CITY           SKY/WX    TMP DP  RH WIND       PRES   REMARKS
Newark/Liberty MOCLDY    37  24  59 W14       30.07R WCI  28
Teterboro      FAIR      37  24  59 W12G23    30.06R WCI  29
Caldwell       MOCLDY    35  23  61 W6        30.07R WCI  30
Somerville     MOCLDY    36  25  64 VRB5G16   30.08R WCI  32
Linden         PTSUNNY   36  23  59 NW8       30.09R WCI  30
Perth Amboy      N/A     37 N/A N/A NW14G20     N/A  WCI  29
Sussex         MOCLDY    34  22  61 VRB3      30.05R
Andover          N/A     33  24  69 N6        30.06R WCI  28
Trenton        FAIR      36  24  62 W6        30.10R WCI  31
Millville      CLOUDY    40  25  55 NW7       30.14R
Atlantic City  FAIR      36  26  67 W6        30.12R WCI  31
Wrightstown    FAIR      36  24  61 NW7       30.09R WCI  30
Toms River     FAIR      35  24  64 W6        30.12R WCI  30
Belmar         NOT AVBL
$$

PAZ047>061-062-071-200900-
Eastern Pennsylvania

CITY           SKY/WX    TMP DP  RH WIND       PRES   REMARKS
Philadelphia   FAIR      38  22  52 NW14      30.15R WCI  30
Allentown      FAIR      36  20  52 NW9       30.11R WCI  29
Scranton       CLOUDY    32  25  75 NW10      30.09R WCI  24
$$

CTZ002-004>006-009-010-012-RIZ004-006-007-MAZ004-011-015-200900-
Southern New England

 In CT

CITY           SKY/WX    TMP DP  RH WIND       PRES   REMARKS
Bradley Intl   FAIR      33  24  69 NW8G17    29.95R WCI  26
Hartford       FAIR      35  24  64 NW9       29.97R WCI  28
Danbury        FAIR      34  18  52 NW10      30.00R WCI  26
Wtrbury/Oxford FAIR      32  23  69 NW8       29.97R WCI  25
Norwalk Harbor   N/A     34 N/A N/A W16         N/A  WCI  23
Bridgeport     FAIR      35  24  64 W7        30.00R WCI  29
Meriden        FAIR      34  22  61 NW9       29.97R WCI  27
New Haven      FAIR      37  25  61 W6        29.99R WCI  32
Chester        FAIR      34  23  64 NW7       29.95R WCI  28
Groton         FAIR      35  25  66 NW8       29.95R WCI  29
Willimantic    FAIR      35  25  66 NW6       29.94R WCI  30

 In RI

CITY           SKY/WX    TMP DP  RH WIND       PRES   REMARKS
Providence     FAIR      36  29  75 NW12      29.91R WCI  28
Block Island   FAIR      36  27  69 NW13G18   29.94R WCI  27
Westerly       FAIR      36  27  69 VRB3      29.94R

In MA

CITY           SKY/WX    TMP DP  RH WIND       PRES   REMARKS
Boston         FAIR      37  29  72 W15G22    29.87R WCI  28
Worcester      MOCLDY    31  24  75 W16       29.85S WCI  20
Westfield      FAIR      34  24  67 NW8       29.93R WCI  27
Provincetown   CLOUDY    39  32  76 NW21G28   29.85S WCI  29
Nantucket      CLOUDY    39  32  76 NW15G26   29.85S WCI  31
$$

ANZ330-335-338-340-345-350-353-355-200900-
Coastal Marine Observations


STATION/POSITION TIME  SKY/WX   TEMP    WIND        PRES    VSBY  WAVE
                                AIR SEA DIR/SP/G                  HT/PER
                 (UTC)          (F)     (DEG/KT/KT) (MB)    (MI)  (FT/S)
NY Harb Entrance 0750            40 44  300/ 21/ 25 1018.2          4/ 4
20 S Fire Island 0750            40 42  300/ 23/ 29 1016.7          5/ 6
23 SSW Montauk P 0750            39 42  290/ 21/ 25 1014.4          5/ 9
15 E Barnegat Li 0730               44                N/A           5/ 5
Hudson Canyon    0750            41 44  310/ 27/ 31 1016.0          8/ 7
Kings Point      0742            38 44  340/ 16/ 21 1018.4
Execution Rocks  NOT AVBL
Western LI Sound NOT AVBL
Central LI Sound 0730            39     300/ 17/ 21   N/A           3
Robbins Reef     0748            38     280/ 15/ 19 1018.7
$$


>>>>>>>>>>>>>>>>>>>>>>>>>>>> KEY <<<<<<<<<<<<<<<<<<<<<<<<<<<
>                                                          <
>     SKY/WX - Sky Condition/Present Weather               <
>     TMP    - Temperature in Fahrenheit                   <
>     DP     - Dew Point in Fahrenheit                     <
>     RH     - Relative Humidity in Percent                <
>     WIND   - Direction (from) and Speed in MPH           <
>     PRES   - Mean Sea Level Pressure (inches of Hg)      <
>     WCI    - Wind Chill Index                            <
>     VSB    - Visibility in Miles                         <
>     HX     - Heat Index                                  <
>     TC     - Temperature in Celsius                      <
>     VRB    - Varibale Wind Direction                     <
>                                                          <
>>>>>>>>>>>>>>>>>>>>>>>>>>>> KEY <<<<<<<<<<<<<<<<<<<<<<<<<<<




USA.gov is the U.S. government's official web portal to all federal, state and local government web resources and services.